map of OVB home
Great Circle Mapper logo
OVB - Airport
Location
City:  Novosibirsk, Novosibirskaya, Russian Federation (Russia)
Name:Tolmachevo International Airport
ICAO / IATA:UNNT / OVB

Details
Type:Airport (Aerodrome, Airfield)
Use:Public/Civil, International (customs port of entry)
Latitude:5502'00"N (55.033333)
Longitude:8235'57"E (82.599167)
Elevation:368 ft (112 m)
Runways:2
Longest:11818 × 148 ft (3602 × 45 m), paved

Time
Time Zone:UTC+6 (DST+7)

Weather
METAR:UNNT 230430Z 22003MPS 9999 BKN046 OVC100 04/M01 Q1013 25090070 16090070 NOSIG RMK QFE750/1000
TAF:UNNT 230155Z 2303/2403 19005MPS 9999 BKN020CB
TEMPO 2303/2321 1500 SHSNRA BKN005 640000

Related Locations
Nearby:
Farthest:PNT: 11388 mi / 18327 km
Puerto Natales [Teniente Julio Gallardo], MA, CL

Find:

   beyond  
but within

Other Information
Maps:
NOTAMs:
Links:
Sources:

  
flag of Russian Federation (Russia)
flag of Novosibirskaya
  

Airport Diagram

Airport diagram for OVB

Airport diagram PDF

Sectional Chart

Flight Planning
at skyvector.com

Satellite Image

Google Maps Satellite View

 

Copyright © 2004-2014 Karl L. Swartz. All rights reserved.
The Great Circle Mapper name and logo are trademarks of the Great Circle Mapper.
All other trademarks mentioned herein belong to their respective owners.
Please see credits for attibutions and further copyright information.

  Follow gcmap on Facebook Follow gcmap on Twitter

hCard Microformat

Geo Microformat